TimePST,TemperatureF,Dew PointF,Humidity,Sea Level PressureIn,VisibilityMPH,Wind Direction,Wind SpeedMPH,Gust SpeedMPH,PrecipitationIn,Events,Conditions,WindDirDegrees,DateUTC
12:56 AM,37.9,30.9,76,30.56,10.0,SSW,3.5,-,N/A,,Clear,200,2013-02-15 08:56:00
1:56 AM,34.0,30.0,85,30.56,10.0,SSE,4.6,-,N/A,,Clear,160,2013-02-15 09:56:00
2:56 AM,35.1,30.0,82,30.55,10.0,Calm,Calm,-,N/A,,Clear,0,2013-02-15 10:56:00
3:56 AM,36.0,30.9,82,30.55,10.0,Calm,Calm,-,N/A,,Clear,0,2013-02-15 11:56:00
4:56 AM,33.1,30.0,89,30.56,10.0,SE,4.6,-,N/A,,Clear,140,2013-02-15 12:56:00
5:56 AM,35.1,30.0,82,30.56,10.0,Calm,Calm,-,N/A,,Clear,0,2013-02-15 13:56:00
6:56 AM,30.9,28.0,89,30.57,10.0,SSE,3.5,-,N/A,,Clear,150,2013-02-15 14:56:00
7:56 AM,34.0,30.0,85,30.57,10.0,Calm,Calm,-,N/A,,Clear,0,2013-02-15 15:56:00
8:56 AM,39.0,32.0,76,30.57,10.0,Calm,Calm,-,N/A,,Clear,0,2013-02-15 16:56:00
9:56 AM,39.0,33.1,79,30.55,10.0,NW,3.5,-,N/A,,Clear,320,2013-02-15 17:56:00
10:56 AM,44.1,35.1,71,30.52,10.0,NNE,4.6,-,N/A,,Clear,30,2013-02-15 18:56:00
11:56 AM,48.9,36.0,61,30.49,10.0,NE,5.8,-,N/A,,Clear,40,2013-02-15 19:56:00
12:56 PM,53.1,37.0,55,30.46,10.0,ENE,5.8,-,N/A,,Clear,60,2013-02-15 20:56:00
1:56 PM,54.0,37.9,55,30.43,10.0,NW,4.6,-,N/A,,Clear,320,2013-02-15 21:56:00
2:56 PM,55.9,37.0,49,30.40,10.0,WNW,3.5,-,N/A,,Clear,300,2013-02-15 22:56:00
3:56 PM,55.9,37.0,49,30.37,10.0,NNW,4.6,-,N/A,,Clear,340,2013-02-15 23:56:00
4:56 PM,53.1,37.0,55,30.36,10.0,Calm,Calm,-,N/A,,Clear,0,2013-02-16 00:56:00
5:56 PM,46.0,37.0,71,30.34,10.0,SSE,5.8,-,N/A,,Clear,150,2013-02-16 01:56:00
6:56 PM,45.0,36.0,71,30.33,10.0,SSE,4.6,-,N/A,,Clear,160,2013-02-16 02:56:00
7:56 PM,43.0,35.1,74,30.32,10.0,South,4.6,-,N/A,,Clear,170,2013-02-16 03:56:00
8:56 PM,42.1,34.0,73,30.31,10.0,East,4.6,-,N/A,,Clear,90,2013-02-16 04:56:00
9:56 PM,42.1,34.0,73,30.29,10.0,Calm,Calm,-,N/A,,Clear,0,2013-02-16 05:56:00
10:56 PM,41.0,33.1,73,30.28,10.0,East,4.6,-,N/A,,Clear,90,2013-02-16 06:56:00
11:56 PM,39.9,34.0,79,30.27,10.0,Calm,Calm,-,N/A,,Clear,0,2013-02-16 07:56:00